Regional Weather Roundup
Issued by NWS

Home | Current Version | Previous Version | Text Only | Print | Product List | Glossary On
Versions: 1 2 3 4 5 6 7 8 9 10 11 12 13 14 15 16 17 18 19 20 21 22 23 24 25 26 27
000
ASUS45 KREV 031110
RWRNV
NEVADA REGIONAL WEATHER ROUNDUP
NATIONAL WEATHER SERVICE RENO NV
400 AM PDT TUE AUG 03 2021

NOTE: "FAIR" INDICATES FEW OR NO CLOUDS BELOW 12,000 FEET WITH NO
SIGNIFICANT WEATHER AND/OR OBSTRUCTIONS TO VISIBILITY.

NVZ001-003-004-031200-
WESTERN NEVADA

CITY           SKY/WX    TMP DP  RH WIND       PRES   REMARKS
RENO           PTCLDY    69  35  28 W5        30.21S
CARSON CITY    FAIR      66  37  34 VRB3      30.24S
MINDEN         FAIR      55  43  62 CALM      30.24S
SLIDE MTN        N/A     61  34  36 SE6         N/A
PYRAMID LAKE     N/A     77 N/A N/A S3          N/A
FALLON         CLEAR     68  40  35 SW5       30.14S
LOVELOCK       CLEAR     72  37  28 N9        30.14S
HAWTHORNE      CLEAR     73  41  31 MISG      30.18R
$$

NVZ002-CAZ072-073-031200-
NORTHERN AND CENTRAL SIERRA

CITY           SKY/WX    TMP DP  RH WIND       PRES   REMARKS
S. LAKE TAHOE  CLEAR     49  38  65 S3        30.35S
TRUCKEE        CLEAR     46  34  61 CALM      30.35R
SQUAW VLY 8000   N/A      1 -31  20 S6          N/A
SUSANVILLE     CLOUDY    57  32  38 CALM      30.20S HAZE
BLUE CANYON    PTCLDY    73  35  25 CALM      30.27S
BRIDGEPORT       N/A     46  39  76 SW3         N/A
$$

NVZ030-031-036-031200-
NORTHERN NEVADA

CITY           SKY/WX    TMP DP  RH WIND       PRES   REMARKS
ELKO           CLEAR     59  49  69 S3        30.28R
WINNEMUCCA     CLEAR     70  46  42 E10       30.19S
BATTLE MOUNTAI SUNNY     72  45  37 NE8       30.23S
WENDOVER       CLEAR     70  57  63 CALM      30.25S
$$

NVZ035-037-031200-
CENTRAL NEVADA

CITY           SKY/WX    TMP DP  RH WIND       PRES   REMARKS
ELY            CLEAR     52  47  83 S13       30.37S
EUREKA           N/A     57  49  74 CALM      30.33S
$$

NVZ013-014-031200-
SOUTH CENTRAL NEVADA

CITY           SKY/WX    TMP DP  RH WIND       PRES   REMARKS
TONOPAH        CLEAR     67  47  48 N10       30.27S
$$

NVZ017-020-022-031200-
SOUTHERN NEVADA

CITY           SKY/WX    TMP DP  RH WIND       PRES   REMARKS
LAS VEGAS      PTCLDY    88  52  29 CALM      29.98R
N. LAS VEGAS   CLEAR     90  50  25 NW8       29.96S
NELLIS AFB     PTCLDY    89  49  25 E6        29.94S
HENDERSON      CLEAR     84  50  30 CALM      30.02R
MERCURY        CLEAR     77  39  25 N5        30.07R
$$



USA.gov is the U.S. government's official web portal to all federal, state and local government web resources and services.